Location: Prague
(50.0830°N, 14.4670°E)
Time: 01:44:25
(UTC+01:00)

Oscar 11 - Pass Details

Date: 07 December 2021
Orbit: 611 x 625 km, 97.6° (Epoch: 17 January)

Event Time Altitude Azimuth Distance (km) Brightness Sun altitude
Rises 05:08:31 0° 18° (NNE) 2,917 10.7 -24.3°
Reaches altitude 10° 05:10:48 10° 24° (NNE) 2,004 9.8 -23.9°
Maximum altitude 05:15:00 47° 98° (E) 831 8.1 -23.2°
Drops below altitude 10° 05:19:10 10° 173° (S) 1,979 9.8 -22.6°
Sets 05:21:24 0° 179° (S) 2,877 10.6 -22.2°
